sat.trackr.live / text

‹ back to catalog

STARLINK-4787

NORAD 53904 · 2022-119U

PAYLOAD ACTIVE UNKNOWN

§ Identity

Operator
Country
US
Launch date
2022-09-24
Launch site
AFETR
Launch vehicle
Mass (kg)
RCS (m²)

Purposes: comms

External: N2YO · Heavens-Above · Gunter

§ Orbital elements

Epoch: 2026-05-24T22:54:42.604128Z

Period
95.44 min
Inclination
53.2153°
Eccentricity
0.0001590
Mean motion
15.08836719 rev/d
Perigee alt
538.7 km
Apogee alt
540.9 km
Semi-major
6,917.9 km
B*
1.4518e-5
RAAN
341.3507°
Arg perigee
100.0828°
Mean anomaly
260.0343°
Rev number
20,320

§ Raw data

STARLINK-47871 53904U 22119U   26144.95465977 -.00000057  00000+0  14518-4 0  99902 53904  53.2153 341.3507 0001590 100.0828 260.0343 15.08836719203202

JSON: /api/v1/satellites/53904 · /tle

For live sub-satellite position, see the globe view (requires WebGL).

§ Visibility from observer

Set your observer location to see the next 7 days of passes ≥ 10°. The values pass through the URL so the page stays shareable.

No JS? Fill the form by hand. The geolocation button needs JavaScript.